This demonstration page uses our WeatherBlox Daily Observations layout. Learn more.

Left ArrowRight Arrow

39.12711, -84.51439

Hourly Observations for October 22, 2016

Temp ( °F °C ) Dew Point ( °F °C ) Humidity (%) Winds ( mph kmh ) Pressure ( in mb ) Visibility ( mi km ) Precip ( " mm )
12:53 am 00:53 Mostly Cloudy 48 8.9 41 5 77 77 NW 6 9 30.05 1018 10 16 0.00 0.00
1:53 am 01:53 Clear 43 6.1 39 3.9 86 86 NW 6 9 30.06 1018 10 16 0.00 0.00
2:53 am 02:53 Mostly Cloudy 45 7.2 40 4.4 83 83 NNW 8 13 30.06 1018 10 16 0.00 0.00
3:53 am 03:53 Mostly Cloudy 45 7.2 40 4.4 83 83 WNW 8 13 30.06 1018 10 16 0.00 0.00
4:53 am 04:53 Cloudy 45 7.2 40 4.4 83 83 NW 7 11 30.06 1018 10 16 0.00 0.00
5:53 am 05:53 Cloudy 46 7.8 41 5 83 83 NW 5 7 30.07 1018 10 16 0.00 0.00
6:53 am 06:53 Cloudy 46 7.8 41 5 83 83 WNW 5 7 30.08 1019 10 16 0.00 0.00
7:53 am 07:53 Cloudy 46 7.8 41 5 83 83 WNW 5 7 30.09 1019 10 16 0.00 0.00
8:53 am 08:53 Partly Cloudy 44 6.7 40 4.4 85 85 WNW 6 9 30.11 1020 10 16 0.00 0.00
9:51 am 09:51 Mostly Cloudy 45 7 41 5 87 87 NW 10 17 30.12 1020 10 16 0.00 0.00
9:53 am 09:53 Mostly Cloudy 46 7.8 41 5 83 83 NW 10 17 30.13 1020 10 16 0.00 0.00
10:21 am 10:21 Partly Cloudy 47 8.3 41 5 80 80 Calm 30.12 1020 10 16 0.00 0.00
10:53 am 10:53 Partly Cloudy 49 9.4 42 5.6 77 77 W 8 13 30.13 1020 10 16 0.00 0.00
10:58 am 10:58 Mostly Cloudy 48 9 43 6 82 82 W 8 13 30.12 1020 10 16 0.00 0.00
11:53 am 11:53 Mostly Cloudy 52 11.1 40 4.4 64 64 NW 12 19 30.14 1021 10 16 0.00 0.00
12:49 pm 12:49 Mostly Cloudy 54 12 39 4 58 58 N 12 19 30.12 1020 10 16 0.00 0.00
12:53 pm 12:53 Cloudy 52 11.1 39 3.9 61 61 NW 9 15 30.13 1020 10 16 0.00 0.00
1:53 pm 13:53 Cloudy 53 11.7 38 3.3 57 57 N 7 11 30.11 1020 10 16 0.00 0.00
2:53 pm 14:53 Sunny 55 12.8 38 3.3 53 53 WNW 6 9 30.08 1019 10 16 0.00 0.00
3:53 pm 15:53 Partly Cloudy 57 13.9 39 3.9 51 51 NW 9 15 30.07 1018 10 16 0.00 0.00
4:53 pm 16:53 Mostly Sunny 58 14.4 40 4.4 51 51 W 10 17 30.07 1018 10 16 0.00 0.00
5:53 pm 17:53 Sunny 57 13.9 38 3.3 49 49 W 7 11 30.08 1019 10 16 0.00 0.00
6:53 pm 18:53 Clear 54 12.2 38 3.3 55 55 W 6 9 30.09 1019 10 16 0.00 0.00
7:53 pm 19:53 Clear 48 8.9 42 5.6 80 80 S 3 6 30.11 1020 10 16 0.00 0.00
8:53 pm 20:53 Clear 46 7.8 43 6.1 89 89 Calm 30.10 1019 10 16 0.00 0.00
9:53 pm 21:53 Clear 43 6.1 43 6.1 100 100 Calm 30.10 1019 10 16 0.00 0.00
10:53 pm 22:53 Clear 43 6.1 43 6.1 100 100 Calm 30.10 1019 10 16 0.00 0.00
11:53 pm 23:53 Clear 42 5.6 42 5.6 100 100 Calm 30.11 1020 8 13 0.00 0.00

Powered by AerisWeather